Location: Newark
(52.8300°N, 8.0000°E)
Time: 19:53:23
(UTC+00:00)

STARLINK-1066 - Pass Details

Date: 31 January 2020
Orbit: 349 x 350 km, 53.0° (Epoch: 16 February)

Event Time Altitude Azimuth Distance (km) Brightness Sun altitude
Rises 16:55:46 0° 283° (WNW) 2,166 7.7 -7.1°
Reaches altitude 10° 16:57:50 10° 277° (W) 1,321 6.8 -7.4°
Maximum altitude 17:00:39 43° 204° (SSW) 511 3.9 -7.8°
Drops below altitude 10° 17:03:27 10° 131° (SE) 1,317 5.3 -8.2°
Enters shadow 17:05:06 - 125° (SE) 1,991 6.1 -8.5°
